Weather History for Monticello, IA

Change the Weather History Date:

Sunday, June 16, 2013

  Actual Average Record
Temperature  
Mean Temperature 75 °F -  
Max Temperature 86 °F 78 °F 89 °F (2006)
Min Temperature 64 °F 57 °F 50 °F (2002)
Cooling Degree Days 10    
Growing Degree Days 25 (Base 50)    
Moisture  
Dew Point 60 °F    
Average Humidity 65    
Maximum Humidity 100    
Minimum Humidity 30    
Precipitation  
Precipitation 0.00 in - - ()
Sea Level Pressure  
Sea Level Pressure 29.93 in    
Wind  
Wind Speed 6 mph (WNW)    
Max Wind Speed 14 mph    
Max Gust Speed 18 mph    
Visibility 10 miles    
Events      
Averages and records for this station are not official NWS values.
T = Trace of Precipitation, MM = Missing Value Source: NWS Daily Summary

Daily Weather History Graph

Daily Weather History Graph

Search for Another Location

Airport:

Trip Planner

Search our weather history database for the weather conditions in past years. The results will help you decide how hot, cold, wet, or windy it might be!

Date:

Astronomy

Jun. 16, 2013 Rise Set
Actual Time 5:27 AM CDT 8:43 PM CDT
Civil Twilight 4:53 AM CDT 9:17 PM CDT
Nautical Twilight 4:08 AM CDT 10:02 PM CDT
Astronomical Twilight 3:14 AM CDT 10:57 PM CDT
Moon 1:12 PM CDT (6/16) 12:40 AM CDT (6/16)
Length of Visible Light 16h 24m
Length of Day
15h 15m
Waxing Crescent, 50% of the Moon is Illuminated
Jun 16
Waxing Crescent
Jun 16
First Quarter
Jun 23
Full
Jun 29
Last Quarter
Jul 8
New

Hourly Weather History & Observations

Time (CDT) Temp. Heat Index Dew Point Humidity Pressure Visibility Wind Dir Wind Speed Gust Speed Precip Events Conditions
12:15 AM 69.8 °F - 64.4 °F 83% 29.94 in 10.0 mi WSW 9.2 mph 15.0 mph N/A   Mostly Cloudy
12:35 AM 69.8 °F - 64.4 °F 83% 29.93 in 10.0 mi WSW 8.1 mph - N/A   Scattered Clouds
12:55 AM 69.8 °F - 64.4 °F 83% 29.93 in 10.0 mi West 5.8 mph - N/A   Mostly Cloudy
1:15 AM 68.0 °F - 64.4 °F 88% 29.92 in 10.0 mi WSW 8.1 mph - N/A   Overcast
1:35 AM 68.0 °F - 64.4 °F 88% 29.91 in 10.0 mi WSW 8.1 mph - N/A   Overcast
1:55 AM 68.0 °F - 64.4 °F 88% 29.91 in 10.0 mi WSW 4.6 mph - N/A   Mostly Cloudy
2:15 AM 68.0 °F - 64.4 °F 88% 29.91 in 10.0 mi West 5.8 mph - N/A   Mostly Cloudy
2:35 AM 68.0 °F - 64.4 °F 88% 29.91 in 10.0 mi West 9.2 mph - N/A   Mostly Cloudy
2:55 AM 66.2 °F - 64.4 °F 94% 29.91 in 10.0 mi WSW 6.9 mph - N/A   Partly Cloudy
3:15 AM 66.2 °F - 64.4 °F 94% 29.91 in 10.0 mi West 9.2 mph - N/A   Partly Cloudy
3:35 AM 68.0 °F - 64.4 °F 88% 29.91 in 10.0 mi West 6.9 mph 13.8 mph N/A   Mostly Cloudy
3:55 AM 68.0 °F - 64.4 °F 88% 29.91 in 10.0 mi West 8.1 mph - N/A   Overcast
4:15 AM 66.2 °F - 64.4 °F 94% 29.91 in 10.0 mi WSW 8.1 mph - N/A   Overcast
4:35 AM 66.2 °F - 64.4 °F 94% 29.92 in 10.0 mi Variable 6.9 mph - N/A   Overcast
4:55 AM 66.2 °F - 64.4 °F 94% 29.92 in 10.0 mi West 5.8 mph - N/A   Mostly Cloudy
5:15 AM 66.2 °F - 64.4 °F 94% 29.92 in 10.0 mi Variable 6.9 mph - N/A   Overcast
5:35 AM 66.2 °F - 64.4 °F 94% 29.93 in 10.0 mi WNW 8.1 mph - N/A   Overcast
5:55 AM 66.2 °F - 66.2 °F 100% 29.93 in 9.0 mi WNW 8.1 mph 13.8 mph N/A   Overcast
6:15 AM 66.2 °F - 66.2 °F 100% 29.93 in 9.0 mi NW 8.1 mph - N/A   Overcast
6:35 AM 68.0 °F - 66.2 °F 94% 29.94 in 9.0 mi NW 6.9 mph - N/A   Overcast
6:55 AM 68.0 °F - 66.2 °F 94% 29.93 in 9.0 mi NW 8.1 mph - N/A   Overcast
7:15 AM 68.0 °F - 66.2 °F 94% 29.94 in 9.0 mi NW 6.9 mph - N/A   Overcast
7:35 AM 69.8 °F - 66.2 °F 88% 29.94 in 9.0 mi NW 6.9 mph - N/A   Overcast
7:55 AM 69.8 °F - 66.2 °F 88% 29.95 in 10.0 mi Calm Calm - N/A   Overcast
8:15 AM 71.6 °F - 66.2 °F 83% 29.94 in 10.0 mi Calm Calm - N/A   Mostly Cloudy
8:35 AM 71.6 °F - 66.2 °F 83% 29.94 in 10.0 mi NW 4.6 mph - N/A   Mostly Cloudy
8:55 AM 73.4 °F - 66.2 °F 78% 29.95 in 10.0 mi Calm Calm - N/A   Partly Cloudy
9:15 AM 73.4 °F - 66.2 °F 78% 29.94 in 10.0 mi Calm Calm - N/A   Clear
9:35 AM 73.4 °F - 66.2 °F 78% 29.94 in 10.0 mi Calm Calm - N/A   Clear
9:55 AM 77.0 °F - 66.2 °F 69% 29.94 in 10.0 mi Variable 3.5 mph - N/A   Clear
10:15 AM 77.0 °F - 64.4 °F 65% 29.94 in 10.0 mi Variable 4.6 mph - N/A   Clear
10:35 AM 77.0 °F - 64.4 °F 65% 29.94 in 10.0 mi Calm Calm - N/A   Clear
10:55 AM 78.8 °F - 62.6 °F 57% 29.94 in 10.0 mi Calm Calm - N/A   Clear
11:15 AM 80.6 °F 81.8 °F 62.6 °F 54% 29.94 in 10.0 mi Variable 3.5 mph - N/A   Clear
11:35 AM 80.6 °F 81.8 °F 62.6 °F 54% 29.94 in 10.0 mi North 5.8 mph - N/A   Clear
11:55 AM 80.6 °F 81.1 °F 59.0 °F 48% 29.94 in 10.0 mi NW 3.5 mph - N/A   Clear
12:15 PM 82.4 °F 82.0 °F 57.2 °F 42% 29.94 in - North 4.6 mph - N/A   Clear
12:35 PM 82.4 °F 82.5 °F 59.0 °F 45% 29.94 in 10.0 mi NNW 5.8 mph - N/A   Clear
12:55 PM 82.4 °F 82.5 °F 59.0 °F 45% 29.94 in 10.0 mi Variable 6.9 mph - N/A   Clear
1:15 PM 82.4 °F - 51.8 °F 35% 29.94 in 10.0 mi North 4.6 mph - N/A   Clear
1:35 PM 82.4 °F 82.0 °F 57.2 °F 42% 29.93 in 10.0 mi Variable 6.9 mph - N/A   Clear
1:55 PM 82.4 °F 81.4 °F 53.6 °F 37% 29.93 in 10.0 mi WNW 8.1 mph - N/A   Clear
2:15 PM 84.2 °F - 51.8 °F 33% 29.93 in 10.0 mi Calm Calm - N/A   Clear
2:35 PM 84.2 °F - 51.8 °F 33% 29.93 in 10.0 mi NW 10.4 mph - N/A   Clear
2:55 PM 84.2 °F - 51.8 °F 33% 29.93 in 10.0 mi Calm Calm 11.5 mph N/A   Clear
3:15 PM 84.2 °F - 51.8 °F 33% 29.93 in 10.0 mi NW 4.6 mph - N/A   Partly Cloudy
3:35 PM 86.0 °F 84.5 °F 55.4 °F 35% 29.92 in 10.0 mi Variable 4.6 mph - N/A   Clear
3:55 PM 84.2 °F - 51.8 °F 33% 29.93 in 10.0 mi WNW 10.4 mph 18.4 mph N/A   Clear
4:15 PM 84.2 °F - 50.0 °F 30% 29.93 in 10.0 mi WNW 8.1 mph - N/A   Clear
4:35 PM 84.2 °F - 50.0 °F 30% 29.92 in 10.0 mi West 13.8 mph - N/A   Clear
4:55 PM 84.2 °F - 51.8 °F 33% 29.92 in 10.0 mi WNW 9.2 mph 16.1 mph N/A   Clear
5:15 PM 84.2 °F - 50.0 °F 30% 29.92 in 10.0 mi WNW 9.2 mph 15.0 mph N/A   Clear
5:35 PM 84.2 °F - 51.8 °F 33% 29.92 in 10.0 mi Variable 6.9 mph - N/A   Clear
5:55 PM 84.2 °F - 51.8 °F 33% 29.91 in 10.0 mi WNW 8.1 mph - N/A   Clear
6:15 PM 84.2 °F - 51.8 °F 33% 29.91 in 10.0 mi WNW 8.1 mph - N/A   Clear
6:35 PM 82.4 °F - 50.0 °F 32% 29.91 in 10.0 mi NNW 6.9 mph 12.7 mph N/A   Clear
6:55 PM 82.4 °F - 50.0 °F 32% 29.90 in 10.0 mi NW 8.1 mph - N/A   Clear
7:15 PM 80.6 °F 80.3 °F 53.6 °F 39% 29.91 in 10.0 mi WNW 5.8 mph - N/A   Clear
7:35 PM 78.8 °F - 51.8 °F 39% 29.91 in 10.0 mi WNW 6.9 mph - N/A   Clear
7:55 PM 78.8 °F - 51.8 °F 39% 29.91 in 10.0 mi NW 6.9 mph - N/A   Clear
8:15 PM 75.2 °F - 53.6 °F 47% 29.91 in 10.0 mi Calm Calm - N/A   Clear
8:35 PM 75.2 °F - 51.8 °F 44% 29.91 in 10.0 mi Calm Calm - N/A   Clear
8:55 PM 71.6 °F - 60.8 °F 69% 29.91 in 10.0 mi Calm Calm - N/A   Clear
9:15 PM 71.6 °F - 55.4 °F 57% 29.93 in 10.0 mi Calm Calm - N/A   Clear
9:35 PM 71.6 °F - 53.6 °F 53% 29.94 in 10.0 mi Calm Calm - N/A   Clear
9:55 PM 69.8 °F - 59.0 °F 68% 29.95 in 10.0 mi Calm Calm - N/A   Clear
10:15 PM 68.0 °F - 60.8 °F 78% 29.94 in 10.0 mi Calm Calm - N/A   Clear
10:35 PM 68.0 °F - 60.8 °F 78% 29.94 in 10.0 mi Calm Calm - N/A   Clear
10:55 PM 68.0 °F - 59.0 °F 73% 29.94 in 10.0 mi Calm Calm - N/A   Clear
11:15 PM 64.4 °F - 59.0 °F 83% 29.94 in 10.0 mi Calm Calm - N/A   Clear
11:35 PM 64.4 °F - 59.0 °F 83% 29.95 in 10.0 mi Calm Calm - N/A   Clear
11:55 PM 66.2 °F - 59.0 °F 78% 29.95 in 10.0 mi Calm Calm - N/A   Clear